Lid_Strength_Index
11 12 12 12 13 14 14 14 16 17 17 18 18 18 18 18 17 17 17 17 17 18 18 18 18 18 18 18 17 18 18 17 18 17 17 17 17 16 16 15 14 14 13
12 13 13 13 14 15 14 15 16 17 18 18 18 18 18 18 17 17 18 18 18 18 18 19 19 19 18 18 18 18 18 18 18 19 18 18 17 16 15 15 15 14 13
13 14 14 15 14 14 15 16 17 17 18 18 18 18 18 18 18 18 18 18 18 18 18 19 19 18 19 19 19 18 18 18 18 18 18 17 17 16 16 15 14 13 12
14 14 15 15 15 15 15 16 17 17 18 18 18 18 18 18 18 18 18 18 18 18 18 18 18 18 18 18 18 18 18 18 18 19 19 18 17 16 16 16 15 13 12
14 14 15 15 15 15 16 16 17 17 18 18 18 18 18 18 18 18 18 19 19 19 19 18 17 17 16 17 17 18 18 18 18 18 18 18 17 17 17 15 15 13 12
14 14 14 16 16 16 16 17 17 18 18 18 19 19 19 19 16 16 18 19 19 19 19 17 17 16 16 14 14 15 16 17 18 18 17 17 17 16 15 14 14 14 14
14 15 16 16 17 16 17 17 18 18 18 19 19 19 19 18 15 15 16 19 19 18 17 17 17 17 17 16 14 13 13 13 14 16 16 16 15 14 13 13 13 13 13
15 15 16 17 17 17 17 17 18 18 19 19 19 19 19 19 15 15 16 19 18 17 16 17 17 17 17 17 17 17 16 15 14 13 14 13 13 11 11 11 12 13 13
16 16 16 16 17 17 18 18 18 18 18 18 18 19 19 19 15 15 16 18 17 16 16 17 17 17 16 14 16 17 16 15 14 12 11 10 9 8 7 11 13 14 13
17 16 17 17 18 18 17 18 17 17 18 18 19 18 18 19 15 15 14 15 15 16 16 17 15 16 14 13 14 15 16 15 15 14 12 11 9 10 9 10 11 14 14
17 18 18 17 18 17 18 18 18 18 19 19 19 19 18 18 16 13 12 14 14 15 15 15 15 13 12 12 11 13 14 13 13 12 13 12 11 12 12 11 11 12 14
18 18 18 18 17 17 18 18 17 18 18 19 19 19 18 18 16 14 13 12 12 14 14 14 14 13 11 11 11 10 9 9 9 11 12 13 13 12 12 12 12 12 11
19 19 18 18 17 17 17 17 18 17 18 18 18 18 19 19 17 14 13 11 10 12 13 13 12 12 12 11 9 8 9 9 9 12 13 13 12 11 12 13 12 12 12
16 17 17 17 17 16 16 16 16 16 16 17 17 17 17 18 18 17 15 13 12 11 11 13 13 12 11 10 11 10 11 11 11 11 11 11 12 13 13 13 14 15 16
15 16 15 15 16 16 16 16 16 15 14 15 16 16 16 17 16 15 15 16 16 16 21 19 18 16 14 14 14 14 13 12 12 12 12 13 13 14 14 14 15 16 17
17 17 17 16 16 17 18 19 15 15 13 13 14 15 18 16 15 14 14 14 14 14 19 18 17 17 16 15 15 15 14 14 14 14 14 14 15 15 15 15 16 17 19
20 19 19 19 19 19 19 19 20 17 14 15 15 15 16 15 14 13 12 12 11 12 17 17 18 17 18 17 17 17 17 16 16 16 16 16 16 16 17 17 18 18 19
24 23 23 23 22 21 21 21 19 17 17 17 14 15 14 13 12 12 11 15 19 19 19 19 19 19 19 20 20 19 19 19 19 18 18 19 19 19 19 19 20 21 20
23 24 25 24 23 23 22 22 22 22 22 22 19 17 18 12 14 16 17 20 20 20 21 21 22 23 23 23 23 23 24 22 21 22 21 23 22 21 22 22 21 21 21
24 24 25 25 24 24 24 24 23 22 22 23 22 23 24 22 25 26 25 24 23 24 24 24 26 26 26 25 25 26 25 24 23 24 23 23 22 22 21 22 22 22 21
27 26 26 26 26 26 25 25 24 24 24 25 25 24 21 24 24 24 25 25 24 25 26 25 27 27 28 28 27 26 26 24 25 25 25 24 24 23 23 21 21 22 21
27 28 27 27 27 26 27 26 26 26 26 25 25 21 19 24 24 25 26 26 27 27 28 27 27 27 27 26 26 25 25 25 25 25 25 25 24 23 23 22 22 21 21
26 27 28 29 28 28 28 28 27 26 26 26 25 25 25 26 26 25 26 27 27 27 29 30 27 27 27 29 28 26 25 25 24 25 25 25 25 24 23 23 23 23 23
28 28 28 30 29 29 29 29 28 29 28 29 29 29 27 28 28 26 26 26 27 27 29 29 28 27 27 28 29 29 28 26 26 26 25 24 24 25 23 24 23 24 24
31 30 31 31 33 32 32 32 30 33 32 30 31 29 29 28 27 27 26 28 27 28 26 27 28 28 27 27 27 28 29 23 23 26 27 25 25 25 25 25 25 26 28
32 32 35 34 34 35 34 32 33 31 32 30 30 30 29 29 28 27 27 28 27 26 26 26 27 27 27 26 26 25 25 22 23 24 25 25 26 26 27 28 29 29 28